Погода в Анджиевском

Россия / Ставропольский край     44°14′10″N   43°05′34″E
темп.,
°C
ветер,
м/с
пор.,
м/с
влажн.,
%
обл.,
%
осадки,
мм/ч
давл.,
гПа
погр.,
м
1 июля, пт
пт100:00+18зюз118634 0.3 101211
03:00+17зюз119110 0.9 101111
06:00+18з22896 1.8 101288
09:00+22сз336961 2.8 1011667
12:00+25с335599 2.3 10111391
15:00+27сз1347100 2.6 10101743
18:00+24з2459100 0.0 1010139
21:00+19зюз22693 0.0 101122
2 июля, сб
сб200:00+17зюз22720 0.0 101125
03:00+16зюз23730 0.0 101029
06:00+17з39745 0.0 1011322
09:00+20сз57550 0.0 10121030
12:00+21сз695195 0.0 10121845
15:00+23сз910370 0.0 10121991
18:00+20сз79410 0.0 10141395
21:00+14зюз46590 0.0 1016119
3 июля, вс
вс300:00+13зюз49601 0.0 1016172
03:00+12з49580 0.0 1015167
06:00+14з412610 0.0 1016419
09:00+20зсз810500 0.0 10161350
12:00+23сз79420 0.0 10152001
15:00+24сз78382 0.0 10142366
18:00+22зсз57431 0.0 1015999
21:00+16зюз48572 0.0 1016128
4 июля, пн
пн400:00+16з2457100 0.0 101675
03:00+17зюз235262 0.0 101673
06:00+16зюз23595 0.0 101691
09:00+23зсз34420 0.0 1016915
12:00+26зсз333513 0.0 10152352
15:00+26сз443582 0.0 10142400
18:00+22ссз2555100 0.0 1015161
21:00+18зюз226627 0.0 101615
5 июля, вт
вт500:00+19юз346031 0.0 101568
03:00+17зюз33603 0.0 101631
06:00+19зюз235875 0.0 101693
09:00+22ссз245425 0.0 1017676
12:00+26св334242 0.0 10172178
15:00+28св323310 0.0 10152623
18:00+26всв56392 0.0 1015527
21:00+20в384216 0.0 1017150